Theta_e
290 289 289 289 289 288 287 287 287 287 288 288 288 287 287 287 288 288 287 287 287 287 288 287 287 287 287 287 287 287 287 287 287 288 288 288 288 291 297 299 301 303 306 308 310 312 313 314 315 316 316 318 318 319 320 320 319 319 320 321 322 322 322 323 323 323 324 324 325 326 328 329 330 331 333 336 337 339 341 341 342 343 343 344 343
290 289 289 288 288 288 288 287 286 287 287 288 288 287 287 287 287 287 287 287 286 287 287 286 286 286 286 287 287 287 287 286 287 287 287 287 287 289 294 297 299 303 304 306 308 310 311 313 314 314 316 317 318 319 319 318 317 318 319 320 321 322 322 322 322 323 323 324 324 325 325 327 328 330 331 333 336 337 339 340 340 341 342 343 342
289 288 288 288 288 287 287 286 285 286 286 287 288 287 287 287 287 286 287 287 286 286 287 286 285 285 286 286 286 286 286 287 286 287 286 286 287 287 290 295 297 300 302 304 306 308 309 311 312 313 314 316 316 317 316 316 316 318 319 319 320 321 321 321 322 322 322 323 323 324 325 325 326 327 328 330 332 336 338 339 339 340 340 341 341
289 288 288 288 287 287 286 286 285 286 287 286 287 287 287 287 287 287 287 286 286 285 287 285 284 285 285 285 286 286 286 286 286 286 286 286 286 286 287 290 295 297 300 302 305 306 308 308 309 310 312 314 314 315 315 315 315 317 318 318 319 320 320 320 320 320 320 321 321 321 322 322 323 324 326 327 328 329 333 337 338 339 340 340 340
288 289 290 287 287 287 286 286 286 286 287 287 286 285 286 286 286 287 287 285 285 285 286 285 284 284 284 285 285 285 285 285 285 285 286 286 286 286 286 289 289 294 296 299 301 304 306 307 307 309 310 311 312 313 313 313 314 316 316 317 318 319 319 319 318 319 320 320 321 320 320 321 321 322 323 324 326 327 328 329 333 338 339 340 340
289 288 288 287 287 286 286 285 285 286 286 286 285 285 285 285 285 285 288 285 284 284 284 284 284 284 284 284 284 285 285 285 285 285 285 285 285 286 286 286 287 288 290 296 298 301 305 306 306 307 308 310 310 310 310 311 313 314 315 316 317 317 317 318 318 319 319 318 318 319 320 322 323 322 322 323 324 325 326 327 328 330 336 337 338
288 288 287 287 286 285 285 285 285 286 285 285 285 285 285 285 285 284 283 283 283 285 284 283 283 283 284 285 284 285 285 285 285 285 285 285 285 285 286 286 287 288 290 289 294 297 301 304 305 306 308 308 307 307 308 310 311 312 313 314 315 315 315 314 314 315 316 316 316 317 318 321 322 323 324 324 324 324 325 326 327 328 329 333 336
287 287 287 286 286 285 285 285 285 285 285 285 285 285 284 285 285 283 282 282 284 282 283 282 283 283 284 284 284 285 285 284 284 284 284 285 285 285 286 286 287 288 293 289 290 292 299 302 302 305 305 303 304 305 307 309 310 311 312 313 313 313 313 313 314 315 315 315 316 316 317 317 318 318 319 320 321 321 321 321 322 325 328 329 333
287 287 286 285 285 285 284 285 285 284 284 284 284 285 284 285 284 285 283 281 282 282 282 282 283 283 283 283 284 284 284 284 284 284 286 284 284 284 285 286 288 292 288 288 290 290 295 299 301 303 302 300 302 304 304 306 308 309 310 310 310 311 311 312 313 313 313 313 314 314 314 314 315 316 317 317 318 319 319 320 321 320 323 328 328
287 286 285 285 285 285 284 285 285 284 283 283 283 283 283 283 282 283 283 282 281 281 282 282 283 283 283 283 283 283 283 283 284 288 284 283 283 284 286 287 286 287 288 288 288 288 289 293 297 298 297 298 301 302 303 304 305 307 307 308 308 310 310 310 311 311 311 311 312 312 313 314 315 315 315 315 316 317 318 319 320 320 320 324 328
287 286 285 286 284 284 284 284 284 283 283 283 283 284 283 282 282 281 283 282 281 282 282 282 282 282 282 282 283 283 283 283 285 283 282 283 286 289 286 284 285 286 286 285 285 285 287 288 287 287 288 296 299 300 301 302 303 303 304 306 308 309 310 310 310 310 310 310 311 312 313 314 315 315 315 315 316 317 318 319 321 322 321 321 326
286 286 286 285 284 284 284 284 284 283 283 282 282 282 281 281 281 281 281 283 284 283 282 281 281 280 282 282 282 282 281 283 282 282 285 283 283 284 282 283 282 282 283 283 284 285 285 285 287 285 288 292 296 297 298 299 298 300 302 305 307 308 309 309 309 309 309 310 310 311 311 312 312 313 314 314 316 317 318 319 321 322 322 322 324
286 286 285 286 284 284 284 283 283 283 283 283 282 282 281 281 283 284 281 280 280 280 281 281 279 279 280 280 281 281 283 283 282 282 282 281 281 281 282 282 281 282 283 284 284 284 284 285 285 286 287 286 287 292 295 296 296 298 302 304 306 307 308 308 307 308 308 309 309 310 311 311 312 313 313 314 316 317 317 317 319 321 321 321 321
286 285 285 285 284 284 284 283 283 283 283 283 282 285 283 281 281 280 281 280 280 281 282 279 277 277 277 278 278 280 282 281 282 280 282 282 282 281 281 282 282 283 283 283 283 283 283 284 284 286 285 285 285 285 287 288 291 296 300 303 304 305 305 306 306 308 308 308 309 310 311 311 312 313 313 314 315 316 317 317 317 318 320 320 320
286 286 285 284 284 284 284 283 283 284 283 282 282 282 281 281 281 280 279 280 280 282 280 280 277 278 278 278 275 276 280 278 279 281 282 281 281 281 283 281 282 281 282 282 282 282 283 284 284 284 284 284 285 285 286 289 289 293 296 297 298 301 303 304 305 307 308 308 309 310 311 311 312 313 313 313 314 315 316 316 316 317 318 319 319
285 285 285 284 284 284 283 283 283 284 282 282 281 281 280 280 280 281 280 278 278 279 282 279 279 278 275 277 275 276 275 275 277 280 281 279 280 281 281 281 281 281 282 282 282 282 283 283 283 283 284 284 285 285 286 285 289 292 293 294 295 297 299 302 304 307 307 308 308 309 311 311 311 312 312 313 314 315 315 315 315 316 317 318 319
285 285 285 284 283 283 283 283 283 282 282 281 281 281 281 280 281 281 279 278 278 277 279 280 279 280 278 276 275 274 274 274 277 277 277 279 280 280 281 281 280 280 281 282 282 282 283 282 283 283 283 284 284 284 284 284 285 288 288 291 292 294 296 301 303 305 306 307 309 308 309 310 311 311 312 313 313 314 315 315 315 315 316 318 319
285 285 285 284 283 283 283 282 282 282 282 281 281 280 280 280 280 281 279 279 278 278 277 280 280 282 279 278 277 274 274 276 276 274 278 281 280 279 279 279 279 280 281 280 281 281 283 283 283 283 283 283 283 283 283 284 286 285 285 286 293 296 296 298 301 304 305 307 308 308 307 308 308 309 310 311 312 312 313 314 314 315 316 316 318
285 285 284 284 283 283 282 282 282 282 282 281 280 280 280 280 281 279 279 282 279 277 278 277 277 278 280 279 279 280 278 277 274 275 274 276 276 278 278 279 279 279 280 280 280 280 281 282 282 282 282 282 283 283 283 283 286 287 289 289 292 294 296 296 297 300 301 302 303 304 305 306 306 307 308 309 310 310 311 312 313 314 315 316 316
285 284 284 284 283 282 282 282 282 281 282 281 281 280 280 281 281 280 280 281 279 279 277 277 276 278 280 278 279 279 277 277 277 276 274 273 276 279 279 277 278 279 280 279 279 279 280 280 281 281 281 281 282 282 282 282 282 282 284 288 291 293 295 296 296 295 296 298 301 304 305 306 307 307 308 308 309 310 311 311 312 313 314 316 316
285 284 284 284 284 283 282 281 281 281 282 281 280 280 280 280 280 279 280 279 279 279 277 277 277 277 276 276 276 276 276 276 276 276 275 273 273 274 276 278 278 278 279 279 279 280 280 280 281 281 282 282 281 281 281 281 281 282 285 288 290 293 294 293 294 294 295 296 298 300 302 304 305 306 306 307 308 309 310 310 311 312 313 314 316
284 284 283 283 283 282 282 281 281 281 282 280 280 280 280 280 280 279 279 279 279 279 278 277 278 277 277 277 276 276 276 275 275 274 275 275 273 274 275 275 274 276 279 279 279 279 279 280 280 280 280 280 280 280 280 281 281 283 284 288 290 291 291 292 294 294 294 294 294 295 298 300 303 304 305 306 307 308 309 310 310 311 312 314 314
283 283 283 283 283 282 282 281 281 282 282 280 280 280 280 279 279 279 279 278 278 279 281 278 278 277 277 276 276 276 275 275 274 275 274 273 273 274 274 275 275 274 276 278 279 279 279 279 279 279 279 279 280 280 280 280 284 285 287 288 289 289 291 293 293 292 292 293 293 294 296 297 299 301 303 305 306 307 308 309 310 311 311 312 313
283 283 283 283 282 282 282 281 281 281 281 280 280 280 279 279 279 279 278 278 278 279 278 278 277 277 277 277 276 277 277 276 276 276 275 275 274 273 274 275 274 275 277 277 278 278 278 279 279 279 279 279 280 280 281 282 282 286 286 287 288 289 290 291 290 290 291 292 292 293 295 295 296 297 298 301 303 305 307 308 308 310 311 312 312
282 282 283 282 282 281 281 281 280 281 280 280 280 279 279 279 278 278 278 278 278 278 277 277 277 276 276 276 276 277 276 276 277 276 276 276 274 273 274 274 272 273 275 275 275 276 278 278 279 279 278 279 280 280 280 281 281 284 286 285 287 287 287 288 288 290 291 291 291 292 293 294 295 296 298 299 301 304 305 305 306 308 310 311 312
283 283 283 283 282 282 282 281 280 280 280 280 279 279 279 278 278 278 277 277 277 277 277 276 276 276 276 275 276 276 275 277 276 276 275 275 274 273 273 273 273 273 275 274 275 275 275 277 278 278 278 278 279 279 279 280 280 284 285 283 282 285 286 287 289 290 290 290 291 291 291 292 294 295 296 298 300 302 303 304 305 306 308 309 311
284 284 283 283 282 282 281 280 280 280 280 279 280 279 279 278 278 277 277 277 277 277 276 276 276 275 275 275 276 276 275 276 275 276 276 275 275 274 273 271 271 273 273 274 274 274 275 275 277 276 277 278 277 278 279 278 282 284 283 280 279 282 284 287 288 289 288 289 290 291 291 291 292 294 294 294 296 297 300 302 303 304 305 306 306
284 283 283 282 282 281 280 280 279 279 279 279 279 278 278 278 277 277 277 278 276 276 276 276 276 275 275 275 275 275 275 276 276 275 275 276 275 275 274 272 270 269 272 272 273 274 276 275 276 277 277 277 278 277 281 279 278 282 282 279 278 279 282 285 286 287 289 290 290 290 290 291 291 292 292 293 293 294 295 296 297 297 297 298 300
283 283 282 282 281 280 280 279 279 279 279 279 278 278 278 278 277 277 276 277 276 276 275 275 275 275 275 275 275 275 275 275 275 276 275 275 275 274 274 273 273 270 269 270 271 272 274 275 274 275 275 276 276 278 277 276 279 280 278 278 278 278 280 284 285 287 289 289 288 289 289 289 290 290 291 291 292 293 294 295 295 296 297 298 299
283 283 282 281 281 281 280 279 279 278 278 278 278 278 277 277 277 276 276 276 276 276 275 275 275 275 275 275 275 275 275 275 275 275 275 275 275 274 274 274 274 272 271 269 270 273 273 275 275 275 275 275 276 277 277 276 280 279 278 277 277 277 281 283 284 286 287 287 287 288 288 288 289 289 290 290 291 292 293 294 294 295 296 297 299
282 282 281 281 280 280 279 279 278 278 278 278 277 277 277 276 276 276 275 275 275 275 275 275 275 275 274 274 274 274 274 274 274 274 274 275 275 275 274 274 274 273 272 271 268 272 274 273 274 275 274 275 276 276 276 276 278 278 277 277 277 279 281 280 282 283 284 285 285 286 287 287 288 288 289 289 290 292 293 293 293 294 295 296 299
282 281 281 280 280 279 279 278 278 278 277 277 277 276 276 276 276 275 275 275 274 274 274 275 275 274 274 273 273 273 273 273 273 273 273 274 275 274 274 274 273 273 273 271 269 269 274 273 274 274 275 275 275 274 275 275 277 279 276 276 276 280 278 277 280 281 283 284 285 286 286 287 288 288 288 289 290 291 291 292 293 293 295 296 297
281 281 280 280 280 279 279 278 278 277 277 276 276 276 276 275 275 275 274 274 274 274 274 273 273 273 273 273 273 273 274 273 273 273 273 273 273 273 273 273 273 273 272 271 269 269 272 274 273 273 274 274 274 274 274 274 275 275 278 276 276 276 276 276 276 279 281 283 284 285 286 287 287 288 288 288 289 290 291 291 292 293 294 295 296
281 280 280 280 279 279 278 278 277 277 277 276 276 276 275 275 274 274 274 274 273 273 273 272 272 273 273 272 273 273 274 273 273 273 273 273 273 272 272 272 271 272 273 271 270 269 268 272 272 273 273 274 273 274 273 274 274 275 275 275 276 276 275 275 275 276 280 282 284 285 286 286 287 288 288 288 289 290 290 291 291 291 292 293 294
280 280 280 279 279 278 278 277 277 276 276 276 276 275 275 275 274 273 273 273 273 272 272 272 272 273 272 273 273 273 273 272 273 273 273 273 273 272 271 272 271 271 271 272 270 268 269 269 272 272 272 273 273 274 274 275 275 275 275 275 275 276 276 276 276 276 280 282 284 285 286 286 287 287 288 288 288 289 289 290 290 291 291 292 293
279 279 279 279 278 278 277 277 276 276 276 275 275 275 275 274 274 273 273 273 273 273 272 272 272 272 272 272 272 272 272 272 272 272 273 273 272 272 271 271 271 271 271 271 271 270 270 269 270 271 273 273 274 275 275 275 275 275 275 275 276 275 275 276 276 276 278 282 283 284 285 286 286 286 287 287 287 288 288 289 289 290 290 291 291
279 278 278 278 277 277 277 276 276 275 275 275 274 274 274 274 273 273 273 272 272 272 272 273 273 272 272 272 272 272 272 271 272 272 272 272 272 271 271 271 271 271 271 272 271 271 270 270 271 273 274 274 274 274 275 274 275 275 275 275 275 276 276 276 276 277 280 282 283 283 284 284 285 285 286 286 287 287 288 288 289 289 289 290 290
278 278 278 277 277 277 276 276 275 275 275 274 274 274 273 273 273 272 272 272 272 272 272 273 273 273 272 272 272 272 272 271 271 271 272 271 271 271 271 271 271 272 272 272 272 272 272 271 272 272 273 273 273 274 275 275 275 274 275 276 276 276 275 275 276 277 277 277 276 277 279 280 281 283 285 285 286 287 287 288 288 288 288 288 288
278 277 277 276 276 276 276 275 275 274 274 274 273 273 272 272 272 272 272 272 271 272 272 272 272 272 272 272 272 272 271 272 271 271 271 271 271 271 271 272 272 272 272 272 273 273 272 272 272 273 273 274 274 273 275 276 276 275 274 274 274 276 276 275 275 276 277 277 279 282 281 281 282 282 283 285 286 286 287 287 288 288 287 287 288
277 277 276 276 276 275 275 274 274 274 273 273 272 272 272 271 271 272 271 271 271 271 271 272 272 272 272 272 272 272 272 272 272 271 271 271 272 272 273 273 274 273 273 273 273 273 272 272 272 272 273 273 274 275 276 275 274 275 276 275 273 274 275 276 276 276 276 277 276 276 279 280 280 281 283 283 284 285 285 285 285 285 284 285 286
277 277 276 276 275 274 273 273 273 273 273 272 272 272 271 271 271 271 271 271 271 271 271 272 272 272 272 272 272 272 273 274 275 275 275 275 273 273 274 274 274 274 273 273 273 273 273 273 272 273 273 273 273 274 274 274 274 273 275 276 274 275 275 275 276 277 277 276 276 276 276 276 276 276 276 276 277 279 280 282 282 282 283 285 287
276 276 275 275 274 274 273 272 272 272 272 272 274 277 275 272 271 271 271 271 271 271 271 271 271 272 272 272 273 275 275 276 276 278 278 279 280 278 277 277 276 275 275 274 274 274 274 273 273 273 273 273 274 274 274 275 276 276 275 275 274 274 275 274 275 276 278 277 276 275 276 277 276 276 276 276 277 279 278 279 279 282 284 286 287
275 274 274 274 273 273 273 272 272 272 272 272 277 279 279 277 272 271 271 272 272 272 272 271 271 272 273 274 274 275 276 277 277 278 279 279 279 279 279 279 279 277 275 274 274 274 273 273 273 273 273 273 274 275 274 275 275 275 274 275 274 274 273 272 270 274 277 277 275 275 275 277 277 275 276 276 277 278 279 279 283 284 285 286 287
274 273 273 273 273 273 273 272 272 272 272 276 279 280 280 279 276 272 272 272 272 272 272 272 273 273 274 274 275 275 275 275 274 274 275 277 278 278 278 279 279 279 280 277 275 274 274 273 273 273 273 273 274 275 274 274 274 274 275 274 274 273 272 272 272 272 275 278 275 275 274 277 277 276 276 277 278 278 279 282 284 285 286 287 287
273 273 273 273 272 273 272 272 271 272 272 277 280 281 281 280 278 275 272 272 272 273 273 274 274 274 274 275 275 274 273 276 275 274 273 273 276 277 277 278 278 279 279 280 280 277 276 275 274 274 274 274 273 274 275 275 276 274 274 274 274 274 274 273 273 274 275 278 276 274 273 276 277 276 276 277 278 278 279 283 284 285 286 286 287
273 273 273 272 272 272 272 272 271 271 271 276 280 281 281 281 280 276 272 273 274 275 274 274 275 275 275 274 273 272 272 273 273 273 272 273 273 273 274 274 275 276 278 279 279 279 278 276 274 273 275 275 274 275 276 277 275 274 274 274 274 274 274 274 275 276 277 278 275 275 273 275 277 276 275 277 278 278 278 281 284 285 286 286 287
273 273 272 272 272 272 271 271 271 271 270 277 281 282 282 282 282 279 274 275 275 275 275 275 275 275 275 273 272 272 272 272 272 273 273 273 273 274 274 275 275 275 276 276 276 276 276 276 276 275 276 276 276 276 277 277 276 276 276 276 276 275 275 276 276 277 277 278 277 276 271 274 277 276 276 277 278 278 278 281 284 285 286 286 287
273 273 272 272 271 271 271 270 270 269 270 278 281 282 282 282 282 277 275 275 275 275 275 275 275 275 274 273 272 272 272 272 274 277 276 276 275 274 274 274 275 275 275 277 279 280 278 277 277 276 276 276 279 277 278 278 278 278 277 276 274 273 272 271 270 272 273 277 278 276 273 274 277 276 276 277 277 276 277 278 282 284 285 286 286
273 272 272 271 271 270 270 270 270 270 270 277 281 282 282 282 281 276 276 275 275 274 274 274 273 273 272 272 272 272 272 272 275 277 278 277 275 274 274 274 274 274 275 276 278 279 279 279 279 280 280 281 281 281 281 280 278 276 273 270 269 270 269 267 268 270 270 274 276 277 275 273 276 276 275 277 277 277 277 277 278 282 284 285 286
272 272 272 271 271 270 270 270 270 269 269 276 281 281 281 281 279 275 275 274 273 273 272 272 272 271 272 274 274 272 273 273 276 277 277 277 274 274 273 273 273 273 273 274 275 275 277 278 278 278 279 278 278 277 277 277 276 275 270 268 270 270 268 268 267 269 271 273 275 278 274 274 276 277 275 276 277 277 278 278 279 280 283 284 285
272 272 271 270 270 270 270 270 272 270 269 275 281 281 281 281 278 275 274 273 272 271 271 270 272 272 272 274 275 275 275 275 277 277 278 277 274 274 274 274 272 272 273 273 272 271 272 273 273 272 271 272 270 269 270 275 275 275 272 270 270 269 268 268 268 269 269 271 275 279 274 274 275 276 276 274 273 276 279 279 279 279 280 280 281
Wind_Speed
7 7 6 6 5 5 5 4 4 3 3 3 4 4 4 4 5 4 4 5 4 5 4 4 4 4 4 4 4 4 4 5 4 4 4 4 4 6 12 13 14 14 14 14 14 14 14 14 14 14 14 14 14 14 14 13 14 15 16 15 15 14 14 15 15 15 14 13 13 14 14 14 14 14 14 14 14 14 14 14 15 18 18 17 17
8 7 7 7 6 5 5 4 5 3 4 5 3 4 5 4 4 4 5 5 5 5 4 4 4 3 4 4 4 4 4 4 5 5 4 5 5 5 9 11 12 13 13 13 13 13 14 14 15 15 15 15 15 16 16 16 16 17 17 16 16 15 15 14 14 15 15 15 14 14 13 14 14 14 15 15 14 14 14 14 15 16 19 19 18
7 8 6 7 6 6 6 4 5 3 3 4 3 4 4 5 4 5 5 5 5 4 5 5 5 5 4 5 5 5 5 5 4 4 4 5 5 4 5 10 12 13 13 13 13 13 13 14 15 15 15 16 16 17 17 17 17 17 17 16 16 16 15 15 14 15 15 15 15 15 14 14 14 14 15 15 16 15 15 14 14 15 16 18 19
7 7 8 7 7 7 6 5 5 3 4 4 4 3 5 4 4 4 4 4 4 5 4 5 5 5 6 6 6 6 6 6 5 5 5 4 5 5 5 6 10 13 13 14 14 15 14 15 15 15 15 15 16 17 17 17 17 17 17 17 16 16 16 16 15 15 15 15 15 16 16 16 16 15 15 15 15 16 16 17 17 16 16 16 17
7 8 8 7 7 7 6 5 5 5 4 4 4 3 4 4 5 3 5 5 5 6 5 4 5 6 6 6 6 7 6 6 6 5 5 5 5 5 5 5 5 8 10 12 13 14 14 15 14 15 15 15 15 17 18 19 18 18 18 17 17 17 17 16 16 16 16 16 16 16 16 16 16 16 16 15 15 15 16 17 17 17 18 18 16
8 7 7 7 7 7 7 6 6 5 4 4 5 4 5 5 4 5 5 6 6 5 6 7 6 5 6 6 6 6 7 7 6 6 5 5 5 4 5 4 4 3 4 8 10 12 14 15 14 14 14 15 15 16 18 18 18 18 18 17 17 17 17 17 17 17 17 18 18 17 17 16 16 16 16 16 15 15 15 16 17 17 17 17 18
7 8 8 7 7 7 6 6 6 5 5 4 5 4 5 5 3 5 3 5 4 4 5 5 6 7 7 7 7 7 7 6 6 6 6 5 5 4 4 5 5 5 4 4 6 9 12 14 15 15 14 14 14 16 18 18 18 18 18 18 17 17 18 19 19 19 18 18 18 18 17 18 17 16 15 15 16 16 16 16 17 18 18 18 18
7 7 8 7 7 7 6 6 5 5 5 4 4 5 4 5 3 4 5 5 5 5 5 5 5 7 6 7 7 7 7 6 6 6 5 4 4 4 4 4 4 4 4 4 5 5 11 12 15 15 15 15 17 18 19 19 19 19 19 18 17 18 19 20 20 19 19 18 18 18 18 19 19 19 19 18 18 19 19 19 19 18 18 19 19
7 6 7 7 6 6 6 6 5 6 5 4 5 3 3 5 4 4 5 4 5 4 4 4 6 6 7 7 7 7 7 5 5 6 4 3 3 3 3 4 4 4 3 3 4 4 6 12 13 14 14 15 16 17 18 19 20 20 19 19 19 20 21 21 20 19 19 19 19 19 20 20 20 20 19 20 19 20 20 20 20 20 19 19 19
7 6 6 6 6 7 6 6 6 6 6 5 5 3 3 5 5 4 5 4 3 3 4 4 4 6 7 8 9 7 6 5 5 3 4 4 2 3 3 4 4 4 3 3 3 4 4 6 9 10 10 13 16 17 18 19 20 20 20 20 21 21 21 21 20 20 20 20 20 20 20 20 20 20 20 20 20 20 20 20 21 21 20 20 19
8 7 7 7 7 6 6 5 6 6 6 5 5 4 3 3 5 4 3 3 1 0 2 4 5 5 6 8 7 8 5 4 3 3 3 2 1 2 3 5 4 3 4 3 3 4 4 5 6 7 8 13 16 18 20 21 21 21 21 21 21 21 21 21 21 21 21 20 20 19 19 19 20 20 21 21 20 20 19 20 20 20 20 20 20
8 7 7 7 7 7 7 5 6 6 7 6 5 5 5 5 4 4 3 2 0 1 0 3 3 4 6 5 7 7 4 3 2 2 0 1 2 2 4 4 4 3 3 3 4 4 5 5 6 6 6 8 14 17 19 20 21 22 22 22 22 22 22 21 22 22 22 21 21 20 20 20 20 21 21 21 21 20 20 19 19 19 20 20 21
7 8 8 7 6 6 7 5 5 6 6 6 5 5 4 4 5 3 4 3 1 0 1 1 2 3 2 3 6 5 3 1 1 2 2 4 2 2 2 2 3 4 4 3 4 4 4 5 5 5 6 6 7 11 15 18 18 20 22 22 22 22 22 23 23 23 22 22 22 22 21 21 21 21 22 22 21 20 20 21 22 21 21 22 23
8 7 7 8 8 7 7 7 7 6 5 4 5 4 4 4 5 4 1 3 1 0 3 2 4 2 6 5 4 7 2 2 2 3 8 5 3 1 1 2 4 4 3 4 4 4 4 4 4 4 5 5 5 5 6 7 8 16 22 22 22 22 22 23 23 23 23 23 22 22 21 21 21 21 22 22 22 21 21 22 23 23 23 23 24
8 8 8 8 8 8 8 7 7 7 7 6 5 5 5 5 4 6 5 2 1 1 3 4 1 3 2 1 4 7 5 3 3 7 7 3 1 2 3 2 4 3 3 3 3 3 3 4 4 4 5 5 5 5 5 5 8 15 20 21 21 21 22 22 23 23 23 23 23 22 21 21 21 22 22 22 22 22 23 23 23 24 23 23 23
8 8 7 7 8 9 7 7 8 7 7 8 7 6 5 4 4 4 6 4 2 0 1 3 2 3 6 1 2 1 4 2 7 9 2 2 0 3 2 3 3 3 3 2 3 3 4 4 4 4 5 4 4 4 5 5 8 11 13 15 16 20 22 23 23 23 23 22 22 22 21 21 22 22 23 23 23 23 24 24 25 25 24 23 22
9 8 8 9 7 7 8 8 8 7 7 7 7 7 6 5 5 5 4 6 4 2 1 2 3 2 3 2 4 4 1 3 7 7 1 5 3 2 3 3 3 3 3 3 3 3 4 4 5 4 4 4 4 5 5 4 4 4 6 8 16 21 22 22 22 22 21 21 21 21 21 21 21 22 23 24 24 25 25 25 26 26 26 24 23
8 8 8 7 8 8 7 8 8 7 7 7 6 5 5 5 5 5 5 4 5 4 2 1 2 1 1 2 2 2 4 4 5 6 3 7 4 1 1 3 2 4 4 3 3 3 4 6 5 5 4 4 5 5 4 3 3 4 6 8 20 21 21 21 22 21 20 19 20 21 21 22 22 23 24 25 26 27 27 27 27 27 27 26 25
9 9 8 8 7 7 8 8 7 7 6 7 7 7 6 5 4 4 5 6 5 4 5 3 1 1 1 1 1 1 1 2 3 4 11 3 3 0 2 3 4 3 3 3 3 4 5 5 5 5 4 4 5 5 4 4 5 7 11 16 19 20 20 20 20 19 20 22 23 23 23 23 24 24 25 26 26 27 29 29 29 28 27 26 26
10 9 9 8 8 8 7 7 8 7 7 7 8 6 6 4 5 4 4 5 6 7 5 5 5 2 1 1 0 0 1 2 1 3 4 10 17 8 5 2 0 3 6 5 3 4 6 5 5 5 5 4 6 4 5 4 4 4 5 14 18 19 19 19 19 21 22 23 23 23 24 24 24 24 25 25 26 27 27 28 30 30 31 29 27
9 10 9 8 8 8 8 8 8 8 7 7 6 7 8 8 7 6 6 5 5 5 6 5 5 5 3 0 1 1 1 2 2 3 5 3 10 9 16 10 4 2 3 2 4 5 6 7 6 4 3 6 5 5 4 4 4 4 6 14 17 18 18 19 21 22 21 21 22 23 24 24 25 26 27 26 26 27 27 27 28 30 30 31 31
9 9 9 8 8 8 8 9 9 8 7 7 7 7 7 7 7 6 6 6 4 6 5 5 5 4 4 5 3 1 0 2 2 3 3 6 10 7 9 13 17 11 14 13 4 4 5 5 4 4 5 5 5 5 3 3 4 4 6 14 16 16 18 20 21 21 22 23 24 25 25 25 26 27 27 27 28 27 27 27 28 28 29 31 31
8 8 10 9 9 8 9 8 7 7 7 8 8 8 8 7 6 5 6 7 6 6 4 4 4 5 4 5 5 5 5 4 3 2 3 4 5 8 8 7 9 14 8 8 11 11 8 7 7 5 5 4 5 4 3 4 5 6 13 14 14 16 19 20 21 23 24 25 25 25 25 25 26 26 27 26 26 26 27 28 28 28 29 30 31
8 8 9 10 9 9 8 8 8 8 9 7 7 7 7 6 6 6 6 5 5 6 6 5 5 5 4 4 5 4 4 5 4 4 5 6 6 10 10 9 8 7 4 6 9 11 9 9 6 5 5 4 4 3 4 4 5 10 9 8 14 17 19 22 24 25 26 26 26 26 27 27 28 27 27 27 27 27 27 28 29 29 29 31 32
11 11 11 12 10 10 10 10 9 9 8 8 7 7 7 7 7 7 6 6 7 7 7 6 7 6 6 4 5 4 5 4 3 4 4 5 5 10 9 4 10 11 7 4 4 4 7 7 8 6 5 6 4 4 4 4 5 6 9 5 13 17 21 24 26 27 27 27 27 28 29 29 29 28 27 28 28 28 29 29 30 31 31 31 32
14 15 13 13 11 11 10 9 7 7 8 8 8 8 8 8 7 7 7 6 6 7 6 6 5 5 4 5 3 4 4 3 3 3 4 4 6 7 10 8 8 13 6 3 2 3 2 4 5 6 5 5 5 4 4 5 4 6 11 9 11 18 22 25 27 28 28 28 29 29 29 29 29 29 28 28 29 29 29 30 30 31 32 33 33
13 12 10 12 12 10 10 10 9 9 9 9 8 8 7 7 6 7 6 6 6 6 6 6 6 4 3 3 3 2 3 2 3 4 3 5 5 6 6 12 10 5 9 4 5 5 8 3 5 3 6 4 3 3 4 3 3 9 13 9 10 18 23 26 27 28 29 29 29 30 30 30 29 29 29 29 30 30 29 30 30 30 31 32 34
10 10 11 12 12 11 10 10 9 9 9 9 9 8 8 8 7 7 7 4 6 6 5 5 4 4 3 3 2 3 2 3 3 4 4 4 5 4 4 4 6 14 6 12 2 5 4 3 1 4 5 3 3 2 0 2 5 12 12 9 9 11 19 25 27 27 28 28 29 29 30 30 30 31 30 30 30 30 29 29 30 31 31 32 33
11 11 12 12 11 11 11 10 11 10 10 9 9 8 8 8 8 8 7 5 6 6 5 5 5 5 4 4 5 4 3 2 3 3 4 3 4 4 4 5 5 5 10 7 12 1 1 4 3 1 2 1 2 1 1 3 7 10 9 10 10 10 16 24 26 26 28 30 30 30 30 30 31 31 31 31 31 30 30 31 31 32 32 33 33
11 10 12 13 11 12 11 11 10 10 11 9 9 9 9 7 7 7 6 6 6 5 5 6 5 5 4 3 4 4 2 3 4 3 3 4 4 4 5 4 4 7 6 8 13 2 9 2 6 3 1 3 2 3 4 8 11 14 11 10 10 10 20 25 27 28 28 30 30 31 31 30 30 31 31 31 31 31 31 31 32 33 33 33 34
11 12 12 13 12 12 11 11 10 11 10 10 9 9 8 7 7 7 6 7 6 6 5 5 5 5 5 5 4 4 3 4 3 3 3 3 4 4 5 4 5 6 6 7 11 3 6 5 2 2 0 4 8 8 8 9 12 13 10 10 11 16 25 21 26 26 28 29 29 30 31 31 32 31 31 31 31 32 32 32 33 33 34 34 34
11 13 13 14 14 14 12 12 11 10 10 9 9 8 8 7 8 7 7 7 7 7 6 5 5 5 5 5 5 5 4 4 4 3 3 3 3 4 4 4 5 5 5 8 11 21 5 6 11 5 9 8 4 10 14 6 9 17 11 11 14 18 14 12 19 25 26 28 30 30 30 31 32 33 32 31 32 33 33 33 33 33 33 34 33
12 13 14 14 14 14 13 12 13 12 11 10 9 9 8 8 8 8 8 8 8 6 6 5 4 5 5 5 5 4 4 4 4 4 4 4 4 5 5 5 4 4 6 7 11 17 19 5 11 7 3 6 11 4 13 12 7 10 11 11 12 12 12 11 12 20 25 27 30 32 32 31 31 32 32 32 32 33 33 33 33 33 33 33 33
12 13 13 12 12 13 13 13 12 11 11 11 10 10 10 10 9 7 8 8 7 6 6 6 5 5 5 5 5 4 5 5 4 5 4 5 5 4 5 5 6 6 6 7 10 12 22 18 9 11 8 4 13 4 8 16 12 8 14 13 9 11 12 11 11 12 22 25 30 32 33 32 31 31 32 32 33 33 33 33 33 33 32 33 33
12 12 13 12 13 13 12 13 12 12 12 12 11 11 10 10 10 8 8 8 8 8 8 7 7 6 6 6 6 5 4 5 6 5 5 5 5 5 6 5 6 6 6 8 9 13 16 20 13 13 11 4 8 13 10 9 13 12 13 14 12 9 9 11 12 13 19 26 31 33 33 32 31 31 32 33 33 33 33 33 33 32 32 32 33
14 12 12 13 12 13 13 13 13 12 12 11 10 10 10 10 10 10 9 9 8 8 8 7 7 7 7 7 6 6 5 5 6 5 5 5 5 5 6 6 6 7 7 7 9 11 14 17 21 12 14 15 10 7 9 12 13 12 12 12 12 12 13 11 13 13 15 25 30 32 32 32 32 31 32 33 33 33 33 33 34 33 33 33 32
13 12 12 11 12 13 13 14 13 12 12 12 12 10 9 9 10 9 9 9 8 8 8 8 7 7 7 7 6 6 6 6 6 6 6 7 6 6 6 6 7 7 7 8 9 11 13 17 20 17 12 14 12 11 9 12 14 11 11 14 13 14 14 15 12 12 18 27 29 32 33 32 32 33 33 33 33 33 33 33 33 33 32 32 32
13 13 15 13 13 14 12 12 12 12 11 11 11 11 10 9 9 8 9 9 9 8 8 7 7 7 7 7 6 6 6 7 7 7 7 8 6 7 7 7 8 8 9 10 10 11 13 15 17 20 18 13 16 16 6 12 16 16 17 16 14 12 12 15 13 9 8 10 10 12 18 24 27 31 31 30 31 32 32 32 33 33 33 33 34
15 14 13 14 12 13 12 11 12 12 11 10 10 10 10 10 10 10 10 9 8 7 7 7 7 7 7 7 7 7 7 8 8 8 7 7 6 7 8 9 9 9 10 10 10 12 13 14 15 14 17 17 14 17 17 11 16 15 13 19 26 14 8 12 17 10 8 11 17 24 23 24 27 25 29 34 35 35 35 34 34 35 35 34 34
14 15 15 15 12 11 11 11 11 10 11 11 10 10 10 11 11 10 10 9 8 7 7 7 7 7 7 7 7 7 8 8 8 7 7 7 6 8 8 9 9 10 10 10 11 12 12 12 14 13 15 19 16 18 15 13 15 15 12 11 18 25 23 16 16 14 9 12 15 12 15 19 20 24 28 29 32 33 33 33 34 35 36 35 33
11 13 13 13 13 12 10 11 11 11 11 12 11 12 12 12 10 10 10 9 9 9 8 8 8 7 7 7 7 8 9 12 15 12 11 10 7 8 9 10 10 10 10 10 9 10 12 12 13 14 14 16 15 17 18 13 17 16 14 16 19 17 18 20 21 16 9 11 12 13 13 10 11 13 12 12 13 20 23 30 26 33 34 34 31
12 11 12 12 13 14 14 12 11 11 11 10 13 20 16 12 12 10 9 10 9 9 8 8 7 8 8 7 7 13 15 15 15 15 15 16 17 12 8 6 7 7 8 9 9 8 9 10 10 12 15 15 16 15 19 19 17 20 22 16 21 22 16 22 22 17 10 10 14 13 14 9 9 13 12 13 12 13 12 12 13 16 21 27 30
13 13 13 14 13 13 14 14 14 12 11 10 22 23 23 22 14 11 10 9 9 9 8 8 8 8 7 8 8 11 12 12 11 16 15 16 16 16 18 18 15 11 8 9 10 9 11 13 14 12 15 15 22 16 22 18 20 17 18 20 18 22 20 19 20 22 12 8 11 14 15 12 9 13 12 11 12 11 12 13 22 28 32 33 33
13 12 14 15 14 13 12 13 14 14 13 16 25 24 23 23 18 11 9 8 8 8 8 8 7 7 7 7 8 6 7 6 4 4 10 14 15 16 17 17 18 20 19 14 12 10 9 10 12 14 13 19 18 19 15 19 17 21 19 20 20 19 21 22 20 18 19 11 15 15 16 15 10 12 14 13 12 11 14 21 29 30 32 32 32
12 14 15 14 14 14 14 15 14 13 11 19 23 24 23 23 22 15 8 8 8 9 9 9 8 7 7 7 7 4 3 10 9 5 4 6 12 17 17 18 19 20 20 23 23 17 13 13 14 16 14 16 20 21 16 19 15 22 19 18 21 17 21 18 25 19 22 13 12 16 22 23 13 12 14 17 13 11 15 23 33 35 35 35 34
14 14 13 15 14 14 14 14 13 12 11 18 23 23 22 23 22 16 8 9 9 8 9 8 8 8 9 7 5 4 4 5 6 6 6 7 8 9 10 10 10 14 19 22 23 25 22 17 17 19 18 16 18 19 19 19 18 16 16 18 21 18 18 21 20 23 20 13 12 14 19 24 15 10 15 17 13 12 13 19 29 32 34 34 33
16 16 16 15 14 13 12 11 11 11 9 19 22 22 21 22 22 16 8 8 7 7 8 8 8 9 9 6 5 5 5 5 6 7 8 9 8 8 8 9 11 11 12 13 15 14 14 14 15 18 19 16 18 17 17 16 20 18 17 20 18 19 19 20 19 22 19 12 10 12 18 19 17 12 14 16 14 12 13 18 30 33 34 34 34
10 10 10 11 13 12 10 10 9 9 8 20 21 21 22 21 22 10 9 8 7 7 8 9 9 8 7 5 5 6 6 6 9 14 12 8 7 8 10 10 10 13 14 15 20 19 17 15 15 16 16 19 24 23 22 20 17 15 15 15 16 18 16 18 20 18 18 7 8 12 14 18 16 9 15 14 14 13 14 12 21 31 32 33 34
13 13 13 11 10 11 11 10 10 9 8 17 22 22 22 23 16 8 9 7 7 9 8 8 6 5 5 5 6 6 6 6 10 13 13 13 8 9 9 10 12 12 11 11 17 23 23 25 28 31 32 32 30 30 31 34 27 22 15 16 18 13 15 19 19 16 18 10 8 10 15 20 16 8 13 13 13 15 14 13 13 20 29 31 33
14 13 11 10 9 10 12 12 12 11 10 16 23 22 22 23 15 9 8 8 7 6 4 4 3 4 5 13 11 8 8 8 11 13 13 11 8 8 10 12 11 9 12 13 11 12 21 27 31 29 27 26 31 34 33 31 31 24 15 16 16 15 18 17 19 20 21 17 10 10 13 19 14 11 12 13 13 12 14 12 13 14 23 26 33
10 9 10 10 10 10 10 11 14 13 10 14 22 21 23 22 16 8 8 8 7 6 5 4 5 5 6 9 13 11 9 9 14 13 14 11 8 9 10 9 12 13 13 13 14 14 11 11 11 10 12 19 17 15 18 30 30 26 18 17 14 14 17 18 18 18 18 16 7 10 14 15 11 15 11 11 13 11 10 12 11 12 12 12 14
Wind_Direction
153 155 146 145 143 137 132 130 123 126 112 85 90 86 67 64 59 58 54 47 40 30 24 13 7 5 2 339 335 333 331 327 326 326 326 324 325 323 334 337 339 343 346 349 349 351 353 355 354 355 354 354 354 353 353 353 352 350 347 345 345 345 346 346 343 342 341 339 337 335 335 333 331 327 323 318 314 309 301 295 289 285 281 274 269
155 154 148 148 143 137 129 131 121 129 111 99 103 96 91 71 63 56 51 39 37 18 21 4 360 354 352 339 330 327 319 317 323 328 325 327 327 325 328 331 333 339 343 344 348 351 354 354 355 356 354 353 354 354 354 353 350 348 346 344 343 344 345 345 344 343 342 341 340 338 335 333 333 332 329 320 312 308 305 299 295 292 289 285 277
154 154 149 145 143 137 134 133 113 117 119 109 107 107 102 94 87 75 58 48 35 19 17 2 351 348 344 340 328 324 318 313 315 325 330 326 327 327 323 328 331 334 337 342 347 351 354 356 356 356 354 353 352 354 352 350 347 344 343 343 343 342 343 344 345 344 343 342 341 341 340 337 334 332 332 333 327 316 307 300 297 294 288 286 285
157 155 151 147 144 139 140 127 132 136 119 121 106 101 100 98 87 82 75 67 40 24 13 10 349 340 337 333 330 327 321 321 326 331 325 326 325 325 327 326 330 332 335 338 345 348 353 356 356 354 352 351 351 350 348 346 343 341 341 341 341 341 342 343 345 343 342 342 341 342 341 340 337 334 330 327 327 327 323 315 308 300 292 287 285
164 159 153 147 144 140 138 143 149 142 133 128 115 105 88 81 66 68 62 51 36 15 7 6 353 340 335 324 329 321 315 320 323 327 325 323 327 326 328 328 322 325 328 332 337 340 347 350 351 349 349 348 348 347 345 342 340 339 339 338 339 340 341 342 343 342 341 341 342 341 340 337 334 333 331 328 325 324 322 321 317 308 301 296 288
160 159 151 145 145 144 145 152 154 142 137 123 106 110 100 86 83 71 56 50 34 14 9 355 343 332 329 321 322 313 314 316 322 318 315 318 319 325 318 308 307 308 317 327 333 336 340 342 343 345 344 346 347 345 341 339 338 338 336 335 337 338 339 341 341 340 339 339 339 337 335 333 332 331 329 327 326 323 321 320 318 314 308 303 298
169 156 155 148 146 147 150 156 150 139 122 124 114 97 97 91 92 79 67 54 46 27 14 350 336 332 328 325 316 316 311 310 320 317 313 309 317 314 318 324 324 326 328 334 335 337 336 340 342 343 346 350 346 340 338 338 337 336 334 333 334 335 337 338 336 334 334 336 334 333 334 339 339 335 330 330 331 331 328 323 318 315 313 306 299
167 161 150 154 150 151 155 151 144 127 121 112 99 102 100 92 80 91 64 40 31 13 12 344 332 322 319 316 308 306 303 312 312 304 295 303 309 311 321 318 316 320 335 339 335 331 338 341 343 347 354 352 345 338 338 338 336 334 333 333 332 332 332 332 331 330 332 332 332 332 334 335 335 335 334 332 330 328 326 325 323 319 314 309 303
169 164 151 153 150 145 155 151 141 130 122 110 104 124 115 107 86 75 87 69 39 7 348 346 327 319 316 310 301 296 294 303 296 288 298 304 304 307 323 325 321 328 330 333 339 344 344 343 346 351 353 347 340 336 336 334 332 331 331 331 328 326 326 327 327 328 329 329 329 329 329 328 328 327 328 328 326 324 322 320 318 316 314 310 306
169 162 152 151 149 148 152 149 139 129 124 117 122 112 109 111 96 71 79 79 44 7 334 328 325 314 316 308 301 292 287 293 284 286 295 293 297 325 326 317 324 317 325 340 351 356 351 344 349 352 347 339 340 337 333 330 328 327 326 323 321 320 322 324 324 325 326 325 325 324 324 324 324 325 326 325 323 320 319 317 316 313 309 307 305
167 162 154 153 149 149 148 153 140 135 127 127 122 117 108 96 110 90 69 102 130 231 273 312 311 307 298 293 289 283 281 265 259 261 259 272 314 352 346 333 325 324 332 347 360 3 355 356 354 349 342 342 343 337 330 327 325 323 320 319 318 319 319 320 321 322 321 320 320 319 319 319 320 321 321 320 318 316 315 314 313 312 309 306 305
168 164 156 155 153 155 152 153 148 139 139 139 145 146 140 116 115 114 87 59 75 175 262 300 293 280 281 279 278 279 275 244 239 253 66 355 312 327 335 319 334 320 338 351 3 3 4 357 351 343 342 340 337 331 325 323 322 318 316 316 316 317 318 319 320 319 318 316 317 316 316 315 316 316 316 315 314 313 314 313 311 312 313 310 307
169 164 163 156 153 152 151 157 153 149 149 159 158 153 148 139 131 120 121 91 53 297 267 233 9 317 234 265 296 286 284 251 235 132 351 323 332 360 321 330 318 336 335 358 6 2 360 347 336 336 332 331 324 321 318 316 314 313 314 315 315 316 317 318 317 316 315 315 314 314 314 313 313 313 312 312 311 311 312 313 311 307 308 311 310
170 167 161 161 159 162 163 165 160 158 156 149 150 150 141 133 138 88 54 124 135 142 326 86 20 39 322 331 314 322 323 68 178 352 358 347 343 66 316 326 327 324 338 5 351 350 332 320 316 317 313 309 305 305 306 307 306 308 311 312 313 313 314 313 313 313 314 314 313 312 311 310 310 310 310 309 309 310 310 310 309 307 305 304 305
171 169 167 170 167 163 169 165 164 158 147 151 155 156 160 153 155 138 113 55 111 33 40 66 145 276 215 26 349 12 330 351 304 359 330 321 338 45 353 331 321 322 335 354 328 319 312 297 301 299 295 293 291 294 294 296 301 300 305 308 309 310 310 310 310 310 310 310 309 309 310 310 310 309 308 307 307 307 308 308 307 305 303 301 301
173 173 171 172 170 170 164 168 168 165 157 155 162 166 159 155 147 140 133 106 91 65 46 67 90 31 13 46 267 95 338 331 332 304 228 261 233 338 351 332 325 326 351 320 290 291 283 280 282 283 280 277 280 282 281 286 293 302 303 307 312 311 308 306 304 305 307 309 310 311 312 313 312 311 309 307 306 305 305 304 304 303 300 298 297
178 179 175 175 173 171 171 169 164 164 156 157 165 172 170 166 158 145 150 139 141 132 346 51 60 65 137 50 350 11 239 276 332 282 331 345 339 325 324 334 322 307 309 282 278 278 276 285 281 280 278 279 282 277 281 286 304 306 312 313 310 306 304 304 305 306 308 310 312 313 314 314 314 313 311 309 308 305 303 302 301 299 298 295 294
180 179 179 174 178 176 172 166 166 165 164 162 158 151 166 162 174 157 149 143 135 129 130 360 80 108 130 134 146 197 310 309 20 310 275 253 236 235 261 254 251 299 295 290 292 283 280 285 285 278 276 287 284 281 282 297 307 312 311 305 308 308 308 308 308 309 312 317 318 317 316 314 313 311 309 308 306 305 303 302 299 296 294 293 292
184 181 181 181 176 175 174 173 167 164 160 152 163 172 169 170 164 152 166 148 126 133 161 169 12 18 107 149 119 121 136 357 290 330 324 329 178 183 264 224 287 303 289 267 263 275 281 272 270 266 274 280 277 281 294 307 312 309 305 305 307 307 307 307 309 315 319 316 314 312 310 309 309 308 306 304 302 301 301 299 298 294 291 289 289
180 184 182 181 178 176 174 170 168 170 164 169 168 165 156 156 161 165 154 154 154 144 158 158 140 208 115 97 89 85 144 179 186 244 272 307 311 295 173 139 14 250 271 276 269 281 282 265 251 259 272 275 286 292 302 308 306 301 298 297 303 304 306 310 315 315 312 311 311 311 311 311 310 308 306 304 302 299 297 296 295 294 291 287 285
185 181 183 181 179 177 175 174 172 173 170 163 162 162 165 161 159 153 165 163 157 147 131 166 148 173 131 255 127 176 234 190 194 159 213 261 282 290 307 314 299 245 259 214 266 268 258 258 256 257 264 284 286 287 297 306 299 293 289 292 297 301 307 312 310 308 309 312 312 312 312 311 310 309 306 304 302 299 297 294 292 292 291 289 286
187 183 179 182 180 178 180 181 178 171 169 168 162 163 165 164 164 161 159 156 151 142 151 161 165 166 165 159 146 119 93 294 221 193 241 217 250 272 291 306 321 328 328 312 295 246 264 253 251 267 273 272 281 289 297 290 287 285 278 286 293 303 309 309 310 313 314 313 310 307 307 306 305 304 302 300 298 298 296 294 292 289 287 287 286
180 187 185 180 183 182 182 183 175 172 168 168 174 169 168 164 161 156 160 156 158 150 148 156 159 161 169 169 186 177 193 189 203 205 223 255 283 263 261 260 276 298 292 295 316 309 294 283 288 270 264 264 275 281 288 283 279 278 285 293 300 307 310 312 314 313 310 307 306 305 305 305 305 303 301 299 296 294 294 294 291 288 284 281 282
184 185 189 185 179 184 182 176 181 176 178 172 166 164 160 153 154 158 167 164 155 153 156 158 166 169 177 176 184 182 195 204 223 223 218 252 259 278 287 301 282 219 262 280 276 281 291 292 278 276 276 273 268 273 281 277 277 283 292 302 314 315 316 316 314 310 307 306 305 305 304 304 304 301 298 298 297 295 293 291 291 290 289 288 283
193 190 195 184 181 180 182 184 184 185 171 166 165 160 158 158 160 163 166 170 170 161 162 174 169 174 186 185 179 189 208 199 209 227 239 253 264 288 283 283 287 293 284 281 275 224 242 255 274 274 270 271 271 279 272 280 281 285 303 326 328 324 320 315 311 308 307 306 306 304 303 302 301 300 298 296 295 294 292 290 288 287 286 284 284
188 195 189 181 186 189 185 185 178 170 168 167 164 165 162 163 162 164 174 176 159 161 161 164 166 173 161 163 184 197 207 194 208 216 247 274 279 283 303 294 282 288 285 264 199 327 260 223 236 240 248 251 264 274 287 282 301 322 331 336 331 321 312 308 306 305 305 304 303 302 301 301 300 299 297 295 295 294 292 290 287 284 283 282 281
192 192 174 184 186 179 182 179 176 173 168 166 166 164 163 158 161 163 166 165 163 155 158 155 158 158 155 164 186 203 209 205 204 238 237 242 252 283 312 318 313 257 296 248 257 220 248 248 207 214 227 232 226 244 260 290 332 337 332 329 311 307 304 302 301 300 299 299 298 299 299 299 299 298 296 295 293 291 290 289 287 286 285 284 283
187 176 183 181 181 180 177 180 173 172 172 170 166 166 165 160 160 161 167 172 157 155 156 149 153 155 160 163 171 218 189 200 215 235 237 243 254 253 269 283 291 309 317 302 320 295 184 207 320 216 220 204 234 201 320 34 351 316 305 300 294 291 294 296 296 296 296 296 297 297 296 296 297 296 294 293 291 289 287 287 286 284 282 280 279
182 180 177 181 180 177 177 175 177 175 171 171 168 165 164 163 165 164 166 166 152 160 153 154 157 152 160 171 189 205 203 193 222 227 232 247 248 242 235 240 261 275 313 296 307 307 276 103 317 303 117 166 140 114 32 308 288 291 292 288 285 284 286 291 292 292 294 295 295 294 294 295 295 294 293 291 289 288 288 286 284 282 280 279 277
176 177 174 176 178 177 177 178 177 174 175 169 168 166 162 165 162 161 159 155 153 155 161 155 158 155 165 172 186 204 189 189 211 213 219 226 232 236 231 236 212 245 268 297 294 174 276 267 194 223 180 175 170 291 293 290 286 292 286 284 284 283 286 290 291 291 291 291 293 295 294 293 293 292 290 289 288 286 284 283 283 282 280 277 275
177 175 175 176 177 178 176 176 176 178 172 170 165 164 163 156 157 157 162 161 162 165 166 157 164 158 170 190 190 198 184 195 204 204 215 215 221 224 241 224 233 242 262 278 289 287 109 296 154 148 169 307 309 295 288 286 287 290 286 284 281 279 288 288 288 287 288 290 291 293 293 292 292 289 288 287 286 285 283 282 282 281 280 278 276
183 176 177 179 178 177 178 174 176 174 172 167 164 160 159 160 160 162 171 167 169 171 168 163 162 166 175 192 198 187 187 185 202 207 214 224 206 225 226 225 245 242 256 266 260 275 244 284 280 240 267 272 252 291 286 266 276 291 285 282 281 282 283 281 280 281 283 286 290 292 290 289 289 290 288 286 285 284 283 282 280 279 278 276 273
179 180 183 182 179 177 173 174 175 175 171 168 166 161 163 165 169 170 171 174 172 171 158 163 162 168 181 194 202 192 173 195 208 208 216 218 222 229 230 236 245 239 248 256 271 280 288 220 272 275 204 280 283 239 284 290 281 284 273 274 279 281 279 275 275 273 277 283 289 293 291 288 286 286 286 285 284 283 283 283 281 280 278 276 274
176 183 183 179 177 173 173 174 175 174 173 168 167 165 168 170 174 168 171 170 169 164 162 172 171 176 181 195 206 174 185 196 206 207 210 211 219 225 230 231 244 250 237 263 265 276 286 294 268 284 274 234 281 253 267 297 295 278 287 285 270 271 278 279 273 271 274 281 287 288 287 285 285 283 282 284 283 283 283 283 281 279 278 277 276
177 180 179 176 175 173 173 174 173 175 174 171 172 171 173 172 170 171 171 171 171 171 175 180 177 176 182 195 200 183 186 202 217 220 213 218 212 222 236 229 242 243 245 244 264 275 281 286 293 295 289 242 267 299 295 277 286 289 287 290 286 270 261 264 271 275 274 279 283 285 283 284 283 282 281 282 282 281 280 280 279 278 278 275 274
174 177 172 174 172 175 175 175 177 174 172 172 171 174 172 171 170 171 171 173 175 178 178 177 178 181 190 197 199 188 187 203 223 223 221 218 214 217 233 237 238 246 246 243 247 264 280 287 292 290 296 302 292 278 282 286 287 291 286 281 279 280 277 265 258 265 267 273 279 282 283 283 283 282 281 281 280 280 278 277 277 277 276 274 273
174 166 170 170 174 175 179 178 176 175 175 170 170 171 171 171 171 169 172 173 178 178 179 181 183 184 191 196 191 180 181 205 221 221 219 217 214 219 230 235 237 244 243 243 250 251 266 275 285 289 292 293 293 290 295 300 299 287 279 277 276 276 278 270 262 262 265 270 272 279 281 280 281 281 280 279 278 276 276 274 274 274 274 276 276
170 172 169 170 176 181 178 177 176 174 172 171 171 170 169 167 167 171 171 175 178 177 180 181 184 191 191 196 191 186 190 205 220 219 218 224 213 220 227 232 235 237 238 239 241 246 251 262 275 291 294 290 303 296 304 303 299 301 300 288 272 264 274 281 269 258 248 257 266 261 267 271 272 273 277 276 276 274 274 274 273 273 274 274 274
172 171 174 171 174 176 176 171 175 172 168 167 167 168 169 170 171 172 175 176 176 173 182 181 185 188 194 196 196 197 200 211 217 223 223 223 221 226 225 231 236 234 239 244 243 251 258 267 274 273 285 290 289 296 303 292 286 286 294 305 300 286 246 259 282 280 272 266 258 263 270 278 278 278 277 279 277 275 274 274 272 273 273 273 273
179 175 173 174 170 169 172 172 170 165 166 168 169 171 173 174 174 177 175 173 172 176 176 185 186 193 195 197 195 203 212 216 215 219 219 222 221 230 230 232 235 239 242 248 254 258 258 260 265 278 282 286 295 284 284 291 289 289 280 283 289 301 305 293 284 282 273 267 280 275 264 271 273 273 274 275 274 274 274 275 274 275 274 273 273
180 176 171 167 163 166 168 170 168 169 172 176 176 175 174 176 176 174 174 172 173 174 178 185 192 194 200 202 208 211 217 226 228 227 223 221 218 227 232 227 233 240 246 249 248 254 260 261 267 273 274 278 279 285 292 293 292 293 297 297 289 286 293 293 296 290 279 276 272 275 274 261 271 268 265 262 257 259 263 263 267 268 268 270 267
175 170 167 169 170 171 169 172 173 175 181 182 182 180 177 173 173 172 171 174 172 173 173 180 190 198 205 207 216 225 229 229 232 236 240 244 247 249 246 243 252 257 259 260 257 254 258 265 269 281 282 281 284 286 290 294 296 296 295 293 292 293 296 290 289 286 289 280 283 276 272 265 262 270 262 261 258 253 256 255 254 262 263 264 268
173 172 169 170 177 176 175 174 178 183 184 183 183 184 182 179 171 171 169 165 170 172 175 181 191 200 205 209 213 223 228 234 238 242 248 250 256 260 263 264 263 258 260 265 262 261 268 269 273 269 272 278 284 287 289 291 295 294 292 289 291 291 291 293 292 295 277 270 275 282 280 265 251 269 266 252 256 252 250 251 257 264 265 267 269
176 171 175 179 176 177 178 181 184 185 185 183 184 185 183 180 175 170 166 166 165 172 178 185 190 194 200 207 217 209 217 212 204 231 251 256 259 260 262 266 267 267 266 267 271 269 261 268 275 274 276 278 281 286 288 290 291 289 285 286 282 286 283 287 281 282 287 288 284 285 279 270 244 253 264 260 250 245 246 254 260 264 266 267 268
168 176 181 175 182 181 182 184 188 187 183 183 185 185 184 181 175 168 165 165 168 172 179 184 190 194 198 211 214 193 175 234 246 238 221 242 257 263 267 270 272 272 273 271 271 271 275 272 274 277 274 283 284 283 281 284 283 285 284 284 280 281 280 276 279 280 280 277 277 276 283 278 264 253 259 264 252 248 251 258 264 267 267 268 268
178 181 179 182 181 185 187 187 184 182 180 187 187 186 184 181 176 168 167 167 169 173 176 187 191 196 206 208 190 205 209 215 222 225 230 237 242 248 252 250 255 266 270 270 273 276 277 278 276 274 275 273 272 281 281 285 283 283 284 285 285 280 277 273 276 276 276 274 264 278 278 275 271 260 260 264 259 248 250 250 258 261 266 266 267
180 182 182 183 186 184 183 181 180 182 183 187 187 185 183 181 179 165 162 165 166 174 183 191 198 197 206 201 203 210 215 224 218 231 234 237 239 243 249 255 257 262 271 272 269 263 262 265 268 274 279 281 280 284 285 285 281 279 276 278 282 287 291 291 286 274 274 261 252 253 268 274 273 258 256 262 264 252 250 251 258 262 265 265 265
184 178 184 182 180 179 175 173 174 178 179 191 186 183 181 179 180 163 160 165 167 180 186 187 191 208 210 199 203 218 223 228 238 248 253 255 257 261 262 261 267 271 266 263 270 275 277 278 278 280 282 284 284 285 285 286 288 294 298 297 295 291 290 286 280 284 278 258 213 243 262 267 266 247 263 260 261 261 257 249 253 257 261 263 265
179 184 182 178 172 169 170 172 173 175 178 191 185 182 180 178 174 153 164 160 169 170 183 187 194 203 200 207 213 217 229 229 244 252 258 267 266 262 267 271 267 263 265 279 284 282 281 283 284 284 284 284 288 295 297 296 296 299 302 295 286 291 286 284 281 281 278 281 248 237 255 263 266 248 262 257 259 264 262 251 247 252 258 263 264
182 182 170 167 169 171 172 176 177 172 181 191 185 183 180 179 168 158 157 155 158 162 158 167 175 203 221 226 225 224 231 241 250 260 264 268 267 271 269 268 270 275 284 286 288 282 280 282 281 281 282 289 294 295 295 293 291 290 282 277 284 290 283 280 280 283 286 279 259 235 251 253 270 258 259 265 265 250 258 255 249 251 255 261 264
177 166 169 169 167 171 177 176 178 176 177 189 186 182 179 179 170 152 157 151 155 166 162 173 193 213 228 235 237 235 238 247 254 261 268 271 271 264 271 284 287 284 285 294 292 285 269 266 277 294 290 290 290 286 284 288 289 289 282 277 278 272 275 278 277 279 278 271 253 232 254 264 261 261 252 274 267 257 236 248 245 247 248 251 254